Location: Unspecified
(0.0000°N, 0.0000°E)
Time: 00:08:27
(UTC+00:00)

Tiros 1 despin weight - All Passes

Search period start: 22 November 2014 00:00
Search period end: 02 December 2014 00:00
Orbit: 600 x 651 km, 48.2° (Epoch: 21 November)

Date Brightness Start Highest point End Pass type
(mag) Time Alt. Az. Time Alt. Az. Time Alt. Az.
22 Nov - 04:19:27 10° NNE 04:21:21 12° NE 04:23:16 10° ENE visible
22 Nov - 05:58:28 10° NW 06:02:59 51° SW 06:07:27 10° SSE daylight
22 Nov - 16:27:30 10° S 16:30:44 19° SE 16:33:59 10° E daylight
22 Nov - 18:08:20 10° WSW 18:12:16 30° NW 18:16:15 10° N visible
23 Nov - 04:36:07 10° NNW 04:40:20 33° NE 04:44:30 10° ESE visible
23 Nov - 06:18:40 10° W 06:21:53 19° SW 06:25:05 10° S daylight
23 Nov - 16:45:15 10° SSW 16:49:38 56° SE 16:54:04 10° NE daylight
23 Nov - 18:30:15 10° WNW 18:31:15 11° NW 18:32:15 10° NW visible
24 Nov - 04:54:32 10° NW 04:59:13 83° SW 05:03:50 10° SE visible
24 Nov - 15:25:07 10° SSE 15:26:56 12° SE 15:28:46 10° ESE daylight
24 Nov - 17:04:11 10° SW 17:08:30 47° NW 17:12:51 10° NNE daylight
25 Nov - 03:32:55 10° N 03:36:31 22° NE 03:40:05 10° E visible
25 Nov - 05:14:04 10° WNW 05:18:05 29° SW 05:22:05 10° S visible
25 Nov - 15:41:48 10° SSW 15:45:51 34° SE 15:49:56 10° ENE daylight
25 Nov - 17:24:31 10° W 17:27:25 17° NW 17:30:20 10° N daylight
26 Nov - 03:50:47 10° NNW 03:55:24 61° NE 04:00:00 10° SE visible
26 Nov - 05:36:15 10° WSW 05:37:01 10° SW 05:37:48 10° SW daylight
26 Nov - 16:00:15 10° SW 16:04:42 78° NW 16:09:12 10° NE daylight
27 Nov - 02:30:09 10° NNE 02:32:39 14° NE 02:35:07 10° E visible
27 Nov - 04:09:46 10° NW 04:14:15 45° SW 04:18:42 10° SSE visible
27 Nov - 14:38:37 10° S 14:42:02 22° SE 14:45:28 10° E daylight
27 Nov - 16:19:50 10° WSW 16:23:34 26° NW 16:27:19 10° N daylight
28 Nov - 02:47:11 10° NNW 02:51:33 38° NE 02:55:53 10° ESE visible
28 Nov - 04:30:09 10° W 04:33:08 17° SW 04:36:06 10° S visible
28 Nov - 14:56:29 10° SSW 15:00:53 64° SE 15:05:19 10° NE daylight
29 Nov - 03:05:42 10° NW 03:10:23 74° SW 03:15:03 10° SSE visible
29 Nov - 13:35:53 10° SSE 13:38:10 14° SE 13:40:26 10° E daylight
29 Nov - 15:15:31 10° WSW 15:19:42 41° NW 15:23:55 10° NNE daylight
30 Nov - 01:43:49 10° N 01:47:39 25° NE 01:51:28 10° ESE night (unlit)
30 Nov - 03:25:19 10° WNW 03:29:13 26° SW 03:33:06 10° S visible
30 Nov - 13:52:54 10° SSW 13:57:02 38° SE 14:01:10 10° ENE daylight
30 Nov - 15:36:05 10° W 15:38:35 15° NW 15:41:05 10° NNW daylight
01 Dec - 02:01:48 10° NNW 02:06:30 70° NE 02:11:09 10° SE visible
01 Dec - 14:11:26 10° SW 14:15:50 68° NW 14:20:15 10° NNE daylight
